Wind_Speed
9 8 8 7 6 7 6 5 4 3 2 2 2 1 1 1 1 1 2 3 3 3 4 4 4 5 5 5 5 6 6 6 7 7 7 7 6 7 7 7 7 7 7
9 8 7 7 6 6 5 5 4 4 3 3 2 2 1 0 1 1 2 2 2 3 4 4 5 5 6 6 6 6 7 7 7 7 8 8 8 8 9 8 8 7 7
8 8 7 7 6 5 5 4 4 4 4 3 2 2 2 1 1 1 1 1 2 3 4 4 5 6 6 7 7 7 7 8 8 8 8 9 9 9 9 8 8 7 7
8 8 7 7 6 6 5 4 4 4 4 3 3 2 2 1 1 0 1 1 2 2 3 4 5 6 6 7 7 7 8 8 7 8 9 9 9 9 10 9 8 8 7
9 9 8 7 6 6 5 4 3 4 4 4 3 3 2 1 1 1 1 1 2 2 3 5 5 6 6 6 7 7 8 9 7 8 9 9 9 9 9 10 9 9 8
9 9 8 8 7 6 5 5 4 4 4 4 4 3 3 2 1 1 1 2 2 3 4 4 5 6 6 7 7 8 8 8 8 7 8 8 8 8 9 9 9 9 8
9 9 8 8 7 6 5 5 4 4 3 3 3 3 3 3 2 1 2 2 2 3 4 4 5 6 7 7 8 8 9 9 8 9 8 9 8 9 9 9 10 9 8
9 8 7 7 7 6 5 5 4 4 4 4 4 3 3 3 2 2 2 2 3 3 4 3 4 4 5 6 6 7 8 10 9 9 8 8 8 9 10 9 10 10 9
9 8 7 7 7 6 6 5 5 4 3 3 4 4 3 3 2 2 3 3 3 3 3 3 3 3 3 4 5 6 7 8 10 9 9 9 10 10 10 10 10 10 9
9 8 8 7 7 7 7 6 6 5 4 4 3 3 3 3 2 2 3 3 3 3 3 3 2 2 3 5 6 6 6 7 8 9 9 10 10 11 10 10 10 9 9
9 8 7 7 7 7 6 6 5 6 5 4 3 3 3 3 3 4 4 4 4 3 3 3 2 1 3 4 5 6 7 8 8 9 10 10 10 11 11 10 10 10 10
9 8 8 7 7 7 7 6 6 6 6 5 4 4 4 4 4 4 4 4 4 3 3 3 2 2 3 4 4 5 7 8 9 10 10 11 11 11 11 11 11 11 11
9 9 8 7 7 7 7 7 7 7 6 6 5 5 5 5 5 5 4 5 5 5 4 4 3 3 4 4 5 5 6 7 8 10 10 11 11 12 12 11 11 10 10
9 9 8 7 8 8 7 8 8 7 7 7 6 6 7 6 6 6 6 5 5 5 5 4 4 4 4 5 6 6 6 7 8 9 11 11 11 12 12 11 11 10 9
9 8 8 7 7 8 8 9 9 8 8 7 7 7 7 7 6 6 6 6 5 6 5 5 5 5 5 5 6 7 7 8 8 8 10 11 12 12 12 12 12 11 9
9 9 9 8 8 8 9 9 9 9 8 7 7 7 7 7 7 7 6 6 5 5 6 5 5 5 5 5 5 6 7 7 7 9 9 10 11 12 12 12 12 11 10
10 10 9 9 8 9 10 10 10 10 9 9 8 8 8 7 7 7 6 6 6 6 6 6 5 5 5 5 6 6 7 7 7 8 9 9 10 10 11 11 11 11 11
11 11 10 10 10 10 10 11 11 10 10 10 9 8 8 8 8 7 7 7 7 6 6 6 6 6 5 6 6 7 7 7 7 9 9 9 10 11 11 11 10 10 10
12 12 12 11 11 11 11 12 12 11 11 11 10 9 8 9 8 8 8 7 7 7 6 6 5 6 6 6 7 7 7 7 7 8 8 9 9 10 11 10 10 10 10
13 13 13 12 12 12 12 12 12 12 11 11 11 10 9 10 9 9 9 8 8 7 7 6 5 6 6 6 7 7 7 7 8 8 8 9 9 10 11 11 11 10 11
13 13 13 13 13 13 13 12 12 12 12 11 11 11 11 10 10 10 10 9 9 8 7 7 6 6 5 5 6 7 7 7 8 8 8 9 10 10 11 11 11 11 12
14 14 13 13 14 14 13 13 12 12 11 11 11 11 11 11 11 10 10 10 9 9 9 7 7 7 6 6 6 7 7 8 8 9 10 10 10 10 11 11 12 12 12
15 15 15 15 15 15 14 14 13 13 12 12 12 12 12 11 10 9 8 9 9 9 9 9 8 8 8 7 7 8 8 8 8 8 9 10 11 11 11 11 11 12 12
15 16 16 17 17 16 15 15 14 14 13 12 11 11 11 10 9 9 9 8 9 9 9 9 9 9 9 10 9 9 9 9 9 8 9 9 9 9 10 10 10 10 11
16 16 17 17 18 17 16 16 15 14 13 12 11 11 11 11 11 10 9 9 9 10 10 10 10 10 10 10 10 10 11 10 10 9 9 10 10 9 10 10 10 10 10
16 16 17 17 18 18 18 17 17 15 14 13 13 12 12 12 12 11 10 10 10 11 11 11 11 11 11 12 11 11 11 11 11 11 11 10 11 11 10 10 11 11 12
Wind_Direction
28 28 26 26 29 31 25 19 23 37 49 55 55 59 95 166 184 193 205 211 218 222 225 226 233 236 238 239 238 239 239 240 240 234 232 232 226 227 225 219 219 228 229
29 32 30 25 21 23 19 14 17 24 35 42 44 46 52 82 179 203 211 214 225 230 233 237 239 241 244 244 243 238 240 240 241 236 232 228 226 224 221 218 218 218 225
27 27 24 18 16 19 20 18 21 25 30 34 36 43 48 55 77 206 226 223 237 245 244 243 247 244 244 246 246 246 241 242 241 239 232 230 228 225 222 216 214 211 209
21 18 15 11 10 13 16 19 26 31 32 34 31 35 45 53 49 118 248 247 249 250 256 252 252 246 242 242 242 245 240 238 238 240 234 228 224 221 217 213 209 203 206
15 13 11 11 6 8 14 18 25 35 35 32 28 26 33 33 28 357 308 280 270 266 266 255 250 243 240 241 243 246 244 235 241 237 231 224 218 214 215 212 209 206 207
8 10 10 9 6 5 9 14 22 31 30 26 21 15 18 20 13 346 329 303 282 275 269 256 253 248 246 243 243 244 235 237 236 234 223 213 208 209 210 210 205 207 209
5 9 11 8 4 3 1 6 13 18 20 17 12 10 6 4 5 335 334 318 299 294 279 259 257 253 252 249 245 242 236 235 234 230 220 206 206 208 208 209 207 206 207
2 2 1 1 3 2 359 356 357 4 7 14 12 8 2 351 342 328 318 318 310 311 288 272 265 261 254 247 241 240 231 228 226 217 210 208 209 209 209 209 207 208 208
2 359 357 354 355 356 354 350 349 352 360 1 4 358 349 352 342 327 318 326 322 322 306 284 270 258 250 242 234 229 224 220 218 216 212 211 206 205 206 208 209 210 209
0 356 352 351 348 345 345 342 345 346 346 348 352 345 337 341 335 319 308 321 322 314 305 289 281 245 244 234 230 231 229 225 218 212 213 211 208 206 207 209 209 210 210
355 351 347 346 344 345 347 346 341 341 339 336 334 328 314 315 318 312 305 312 319 311 301 289 274 263 248 238 234 236 236 231 222 213 211 212 212 208 207 209 209 210 211
349 347 344 342 341 341 343 340 333 333 330 327 321 315 306 305 307 304 304 303 306 301 300 303 267 250 244 247 237 236 234 233 223 214 211 212 212 210 210 211 211 214 214
342 340 339 337 336 335 338 335 327 322 321 315 313 309 303 297 297 295 295 296 296 292 290 292 278 268 240 242 240 235 228 227 219 215 211 211 212 213 213 213 213 217 214
336 336 334 332 330 328 330 328 324 316 314 310 305 301 300 293 287 287 284 288 286 286 287 293 293 278 262 238 235 230 225 221 221 218 213 212 215 216 216 217 216 214 215
331 332 330 328 325 324 324 323 321 315 312 309 305 299 294 293 288 283 281 279 279 280 284 289 295 278 272 248 229 222 219 216 222 223 220 221 219 220 218 218 216 216 215
323 323 323 320 320 320 317 316 315 313 309 307 304 300 293 293 293 286 280 276 272 274 279 283 289 276 266 257 238 219 217 220 220 224 223 223 224 223 221 218 216 215 216
314 314 316 312 314 313 310 309 310 308 305 301 297 299 294 290 292 287 282 278 270 267 270 276 279 272 262 253 235 222 221 228 228 223 225 221 223 221 218 218 222 221 221
308 307 308 307 309 308 305 303 304 303 298 297 289 292 292 289 288 285 281 279 275 264 263 271 273 273 263 247 235 226 225 232 231 226 225 222 221 219 216 216 219 218 218
303 302 302 303 305 306 303 299 295 298 294 294 289 285 286 287 287 284 284 280 276 266 261 263 268 270 266 249 236 227 225 236 226 220 218 216 214 214 212 209 212 217 222
299 300 301 302 300 302 302 297 291 292 290 288 292 282 280 280 280 280 280 279 275 266 259 256 260 262 258 250 236 230 229 232 222 216 220 216 210 211 212 215 217 222 227
297 298 298 300 298 299 300 295 287 287 288 286 292 284 281 280 278 278 276 269 268 263 255 250 248 248 247 238 230 227 224 228 222 222 220 219 217 215 218 222 224 226 227
294 295 295 295 296 294 294 290 282 282 285 287 287 283 282 280 289 286 269 263 262 259 256 248 243 241 239 238 236 232 227 230 228 221 220 221 222 221 223 224 226 230 234
290 290 291 294 295 288 288 286 281 282 280 281 282 281 281 281 289 285 275 264 259 259 259 247 242 240 237 236 240 239 238 238 232 231 225 222 223 226 227 231 231 232 234
288 289 289 292 293 288 287 289 285 279 278 282 279 281 280 278 282 284 270 262 258 257 255 247 246 243 240 238 241 238 239 243 238 241 237 232 231 229 231 236 237 238 243
286 289 290 290 291 289 287 285 285 280 276 278 281 281 279 277 279 276 269 262 257 257 258 255 252 247 246 244 242 239 239 240 241 243 243 240 238 238 241 241 243 247 251
287 290 292 292 290 287 285 282 280 278 276 277 276 280 281 280 275 269 266 262 259 260 260 257 256 255 249 247 246 245 244 242 242 245 248 243 240 242 244 245 246 249 250
Height
5895 5893 5892 5891 5890 5888 5888 5887 5886 5885 5885 5884 5884 5883 5883 5882 5882 5882 5881 5881 5881 5881 5881 5881 5881 5880 5881 5881 5881 5881 5881 5881 5881 5882 5882 5883 5883 5884 5884 5885 5886 5887 5887
5895 5894 5892 5891 5890 5889 5888 5887 5886 5885 5884 5884 5883 5883 5882 5882 5881 5881 5881 5880 5880 5880 5880 5880 5880 5879 5880 5880 5880 5880 5880 5880 5880 5880 5881 5881 5881 5882 5883 5884 5885 5886 5887
5895 5894 5892 5891 5890 5889 5888 5887 5886 5885 5884 5884 5883 5882 5882 5881 5881 5880 5880 5880 5879 5879 5879 5878 5878 5878 5878 5878 5878 5878 5878 5878 5878 5879 5878 5879 5880 5880 5882 5883 5885 5886 5886
5895 5894 5893 5891 5890 5889 5887 5886 5885 5885 5884 5883 5882 5882 5881 5880 5880 5879 5879 5879 5878 5878 5877 5877 5877 5877 5877 5877 5876 5876 5876 5876 5876 5877 5876 5877 5877 5879 5881 5882 5884 5885 5886
5895 5894 5892 5891 5890 5889 5887 5886 5885 5884 5884 5883 5882 5881 5880 5880 5879 5879 5878 5878 5877 5877 5876 5875 5875 5875 5875 5875 5875 5875 5874 5874 5874 5875 5874 5874 5875 5878 5880 5882 5883 5884 5885
5895 5894 5892 5891 5890 5889 5887 5886 5885 5884 5883 5882 5881 5881 5880 5879 5878 5878 5877 5877 5876 5875 5875 5874 5874 5873 5873 5873 5874 5873 5873 5873 5873 5873 5873 5874 5876 5877 5879 5881 5882 5884 5884
5895 5893 5892 5891 5890 5889 5887 5886 5885 5884 5883 5882 5881 5880 5879 5878 5878 5877 5877 5876 5875 5874 5874 5873 5872 5872 5872 5872 5872 5872 5872 5872 5872 5872 5873 5874 5876 5877 5879 5880 5881 5883 5884
5894 5893 5892 5891 5889 5888 5887 5886 5885 5884 5883 5882 5881 5880 5879 5878 5877 5877 5876 5875 5874 5873 5872 5872 5871 5871 5870 5870 5870 5870 5870 5870 5871 5871 5872 5874 5875 5876 5878 5879 5880 5882 5883
5894 5892 5891 5890 5889 5888 5887 5886 5884 5883 5882 5881 5880 5879 5878 5878 5877 5876 5875 5875 5874 5872 5871 5871 5870 5869 5869 5869 5869 5869 5868 5868 5869 5871 5872 5873 5874 5876 5877 5878 5880 5881 5882
5894 5892 5890 5889 5888 5887 5886 5885 5884 5883 5882 5881 5880 5879 5878 5877 5876 5875 5875 5874 5873 5872 5871 5870 5869 5868 5868 5868 5868 5868 5868 5868 5869 5869 5871 5872 5873 5875 5876 5878 5879 5880 5881
5893 5892 5890 5889 5888 5886 5885 5884 5883 5882 5881 5880 5879 5878 5877 5876 5875 5875 5874 5873 5872 5871 5870 5869 5868 5867 5867 5866 5867 5867 5867 5867 5868 5869 5870 5871 5872 5874 5875 5877 5878 5879 5881
5893 5892 5890 5888 5887 5886 5884 5883 5882 5881 5880 5879 5878 5877 5876 5875 5874 5873 5873 5872 5871 5870 5869 5868 5867 5866 5866 5865 5865 5865 5866 5866 5867 5868 5869 5870 5871 5872 5874 5875 5877 5878 5879
5892 5891 5889 5888 5886 5885 5884 5883 5882 5881 5879 5878 5877 5876 5875 5874 5873 5872 5871 5871 5870 5869 5868 5867 5866 5865 5865 5864 5864 5864 5865 5865 5866 5867 5868 5869 5870 5871 5873 5874 5876 5877 5878
5891 5890 5888 5887 5885 5884 5883 5882 5881 5879 5878 5877 5876 5874 5873 5872 5871 5871 5870 5869 5868 5868 5867 5866 5865 5864 5864 5863 5863 5863 5863 5864 5864 5865 5866 5868 5869 5870 5872 5873 5875 5876 5877
5890 5889 5887 5886 5884 5883 5882 5880 5879 5878 5877 5876 5874 5873 5872 5871 5870 5869 5868 5867 5867 5866 5865 5864 5863 5863 5862 5862 5862 5862 5862 5863 5863 5864 5865 5866 5867 5868 5870 5872 5873 5875 5876
5889 5887 5886 5884 5883 5882 5880 5879 5877 5876 5875 5874 5873 5871 5870 5869 5868 5867 5866 5866 5865 5864 5863 5863 5862 5861 5861 5860 5860 5861 5861 5862 5862 5863 5863 5864 5865 5866 5868 5870 5872 5873 5875
5887 5886 5884 5883 5881 5880 5879 5877 5876 5874 5873 5872 5871 5870 5869 5867 5866 5865 5865 5864 5863 5862 5862 5861 5860 5859 5859 5858 5859 5859 5860 5861 5861 5861 5862 5862 5863 5864 5866 5868 5870 5872 5873
5885 5884 5883 5881 5880 5878 5877 5875 5874 5872 5871 5870 5869 5868 5867 5865 5864 5864 5863 5862 5862 5861 5860 5860 5859 5857 5857 5856 5857 5858 5859 5859 5859 5860 5860 5861 5861 5862 5864 5867 5869 5870 5872
5883 5882 5880 5879 5878 5876 5874 5873 5871 5870 5868 5867 5867 5865 5864 5863 5862 5862 5861 5860 5860 5859 5859 5858 5857 5856 5855 5855 5855 5856 5857 5858 5858 5859 5859 5860 5860 5861 5863 5865 5868 5869 5871
5881 5880 5878 5877 5875 5873 5871 5870 5868 5867 5866 5865 5864 5863 5862 5861 5860 5859 5858 5858 5857 5857 5857 5857 5856 5855 5854 5854 5854 5855 5856 5857 5857 5858 5859 5859 5860 5861 5863 5864 5866 5868 5869
5878 5877 5876 5874 5872 5870 5869 5867 5866 5864 5864 5863 5861 5860 5859 5859 5857 5856 5856 5855 5855 5855 5855 5855 5855 5855 5854 5854 5854 5855 5855 5856 5857 5858 5858 5859 5860 5861 5862 5863 5865 5866 5867
5876 5874 5873 5871 5869 5868 5866 5864 5863 5862 5861 5860 5859 5858 5857 5856 5855 5854 5853 5853 5853 5853 5854 5853 5853 5854 5854 5854 5854 5854 5855 5856 5855 5856 5857 5858 5859 5860 5861 5862 5863 5864 5865
5873 5871 5870 5868 5866 5865 5863 5861 5860 5859 5857 5856 5856 5855 5854 5853 5852 5851 5851 5851 5851 5851 5852 5851 5852 5852 5852 5853 5853 5854 5854 5854 5855 5855 5855 5856 5857 5858 5860 5861 5861 5862 5863
5869 5868 5866 5865 5863 5861 5860 5859 5857 5855 5854 5853 5852 5852 5851 5850 5849 5849 5848 5848 5849 5849 5850 5850 5850 5850 5851 5851 5852 5852 5853 5853 5853 5854 5854 5855 5855 5857 5858 5859 5860 5860 5861
5866 5864 5863 5861 5860 5858 5857 5855 5854 5852 5851 5850 5849 5849 5848 5847 5847 5846 5846 5846 5846 5847 5847 5847 5848 5848 5848 5849 5850 5850 5850 5851 5852 5852 5853 5853 5854 5855 5856 5857 5858 5858 5859
5862 5861 5859 5858 5856 5854 5853 5851 5850 5849 5848 5847 5846 5846 5845 5844 5843 5844 5844 5844 5844 5844 5844 5845 5845 5845 5846 5847 5847 5848 5848 5849 5849 5850 5851 5851 5852 5853 5854 5854 5855 5856 5856